GW2622 Weather Reports


Display with metric or nautical units.
time (UTC)temp
F
wind
direction
speed
MPH
gust
MPH
rain 1hr
in
rain 24hr
in
rain mn
in
humidity
%
barometer
mb
20260902103151 76 35 5.0 6.0 0.00 0.00 0.00 81 1015.2
20260902102647 75 296 1.0 3.0 0.00 0.00 0.00 82 1014.7
20260902102144 75 14 6.0 9.0 0.00 0.00 0.00 83 1014.7
20260902101639 75 32 4.0 11.0 0.00 0.00 0.00 83 1014.6
20260902101138 75 341 5.0 7.0 0.00 0.00 0.00 84 1014.6
20260902100633 75 232 3.0 5.0 0.00 0.00 0.00 83 1013.6
20260902100128 75 201 3.0 5.0 0.00 0.00 0.00 83 1013.7
20260902095627 75 206 3.0 5.0 0.00 0.00 0.00 83 1013.6
20260902095127 75 222 3.0 5.0 0.00 0.00 0.00 84 1013.5
20260902094622 75 217 3.0 3.0 0.00 0.00 0.00 83 1013.5
20260902094118 75 200 3.0 5.0 0.00 0.00 0.00 83 1013.5
20260902093612 75 206 4.0 5.0 0.00 0.00 0.00 83 1013.4
20260902093106 75 207 3.0 5.0 0.00 0.00 0.00 83 1013.5
20260902092601 75 229 3.0 5.0 0.00 0.00 0.00 83 1013.4
20260902092056 75 218 3.0 5.0 0.00 0.00 0.00 82 1013.4
20260902091551 75 207 4.0 5.0 0.00 0.00 0.00 82 1013.5
20260902091047 76 190 3.0 3.0 0.00 0.00 0.00 82 1013.4
20260902090542 76 220 2.0 5.0 0.00 0.00 0.00 81 1013.3
20260902090041 76 218 3.0 5.0 0.00 0.00 0.00 81 1013.7
20260902085536 76 230 3.0 6.0 0.00 0.00 0.00 81 1013.4
20260902085031 76 203 3.0 7.0 0.00 0.00 0.00 81 1013.4
20260902084522 76 214 4.0 5.0 0.00 0.00 0.00 81 1013.4
20260902084017 76 197 4.0 5.0 0.00 0.00 0.00 81 1013.5
20260902083512 76 228 3.0 3.0 0.00 0.00 0.00 80 1013.5
20260902083007 76 201 3.0 5.0 0.00 0.00 0.00 80 1013.5
20260902082502 76 182 3.0 5.0 0.00 0.00 0.00 80 1013.3
20260902081958 77 221 2.0 3.0 0.00 0.00 0.00 80 1013.5
20260902081455 77 213 4.0 5.0 0.00 0.00 0.00 79 1013.3
20260902080949 77 216 4.0 5.0 0.00 0.00 0.00 79 1013.6
20260902080445 77 217 3.0 6.0 0.00 0.00 0.00 79 1013.2
20260902075939 77 197 4.0 6.0 0.00 0.00 0.00 78 1013.3
20260902075436 77 188 4.0 6.0 0.00 0.00 0.00 78 1013.5
20260902074931 78 215 3.0 6.0 0.00 0.00 0.00 78 1013.3
20260902074426 78 211 3.0 5.0 0.00 0.00 0.00 77 1013.3
20260902073921 78 219 3.0 5.0 0.00 0.00 0.00 77 1013.2
20260902073417 78 184 4.0 7.0 0.00 0.00 0.00 76 1013.3
20260902072913 78 195 6.0 7.0 0.00 0.00 0.00 76 1013.2
20260902072409 78 214 5.0 6.0 0.00 0.00 0.00 76 1013.1
20260902071905 78 246 3.0 5.0 0.00 0.00 0.00 77 1012.9
20260902071404 78 245 3.0 6.0 0.00 0.00 0.00 77 1013.0
20260902070901 78 216 3.0 5.0 0.00 0.00 0.00 77 1013.1
20260902070356 78 190 4.0 6.0 0.00 0.00 0.00 76 1012.8
20260902065854 78 201 4.0 6.0 0.00 0.00 0.00 76 1012.9
20260902065344 79 157 3.0 5.0 0.00 0.00 0.00 75 1012.8
20260902064839 79 204 3.0 5.0 0.00 0.00 0.00 75 1012.7
20260902064335 78 203 3.0 5.0 0.00 0.00 0.00 76 1012.7
20260902063831 79 223 4.0 6.0 0.00 0.00 0.00 75 1012.8
20260902063330 79 205 4.0 6.0 0.00 0.00 0.00 75 1012.7
20260902062825 79 218 3.0 5.0 0.00 0.00 0.00 75 1012.7
20260902062320 78 189 3.0 5.0 0.00 0.00 0.00 75 1012.9
20260902061819 79 217 3.0 3.0 0.00 0.00 0.00 75 1012.7
20260902061315 79 188 4.0 6.0 0.00 0.00 0.00 75 1013.0
20260902060811 79 214 3.0 3.0 0.00 0.00 0.00 75 1013.1
20260902060306 79 211 2.0 3.0 0.00 0.00 0.00 76 1013.1
20260902055802 79 228 2.0 5.0 0.00 0.00 0.00 75 1013.0
20260902055258 79 184 3.0 5.0 0.00 0.00 0.00 76 1013.1
20260902054752 79 228 3.0 5.0 0.00 0.00 0.00 76 1013.1
20260902054248 79 221 3.0 3.0 0.00 0.00 0.00 75 1013.3
20260902053744 79 199 4.0 5.0 0.00 0.00 0.00 75 1013.2
20260902053243 79 211 4.0 7.0 0.00 0.00 0.00 75 1013.2
20260902052742 79 234 2.0 5.0 0.00 0.00 0.00 76 1013.2
20260902052232 79 201 3.0 5.0 0.00 0.00 0.00 76 1013.5
20260902051731 79 211 3.0 5.0 0.00 0.00 0.00 77 1013.3
20260902051221 79 242 2.0 2.0 0.00 0.00 0.00 76 1013.2
20260902050715 79 214 2.0 5.0 0.00 0.00 0.00 76 1013.3
20260902050210 79 192 3.0 3.0 0.00 0.00 0.00 76 1013.3
20260902045705 79 215 2.0 3.0 0.00 0.00 0.00 76 1013.4
20260902045201 79 225 3.0 5.0 0.00 0.00 0.00 75 1013.4
20260902044656 80 218 1.0 3.0 0.00 0.00 0.00 75 1013.4
20260902044152 79 177 3.0 5.0 0.00 0.00 0.00 75 1013.5
20260902043647 80 193 3.0 5.0 0.00 0.00 0.00 74 1013.3
20260902043142 80 183 2.0 3.0 0.00 0.00 0.00 74 1013.4
20260902042641 80 203 3.0 3.0 0.00 0.00 0.00 74 1013.3
20260902042136 79 199 2.0 3.0 0.00 0.00 0.00 75 1013.5
20260902041631 80 242 2.0 2.0 0.00 0.00 0.00 76 1013.4
20260902041126 80 217 2.0 2.0 0.00 0.00 0.00 76 1013.6
20260902040625 80 243 2.0 2.0 0.00 0.00 0.00 74 1013.5
20260902040121 81 246 1.0 2.0 0.00 0.00 0.00 73 1013.5
20260902035618 82 234 2.0 3.0 0.00 0.00 0.00 72 1013.4
20260902035113 81 195 2.0 3.0 0.00 0.00 0.00 72 1013.6
20260902034612 81 191 3.0 5.0 0.00 0.00 0.00 72 1013.5
20260902034107 81 206 2.0 5.0 0.00 0.00 0.00 73 1013.4
20260902033606 81 187 3.0 5.0 0.00 0.00 0.00 74 1013.3
20260902033101 80 176 4.0 6.0 0.00 0.00 0.00 75 1013.3
20260902032600 80 195 3.0 5.0 0.00 0.00 0.00 76 1013.3
20260902032055 80 195 3.0 3.0 0.00 0.00 0.00 77 1013.2
20260902031549 80 175 3.0 5.0 0.00 0.00 0.00 77 1013.3
20260902031045 80 171 3.0 5.0 0.00 0.00 0.00 76 1013.1
20260902030540 81 183 3.0 5.0 0.00 0.00 0.00 76 1013.1
20260902030040 81 191 3.0 3.0 0.00 0.00 0.00 75 1013.1
20260902025534 81 175 3.0 3.0 0.00 0.00 0.00 75 1013.2
20260902025029 81 170 2.0 3.0 0.00 0.00 0.00 75 1013.2
20260902024525 81 172 3.0 3.0 0.00 0.00 0.00 74 1013.3
20260902024025 81 185 3.0 3.0 0.00 0.00 0.00 75 1013.1
20260902023521 81 164 3.0 5.0 0.00 0.00 0.00 74 1013.1
20260902023015 82 188 2.0 3.0 0.00 0.00 0.00 74 1013.2
20260902022510 82 179 3.0 3.0 0.00 0.00 0.00 74 1012.9
20260902022005 82 165 2.0 3.0 0.00 0.00 0.00 73 1013.0
20260902021500 82 198 2.0 2.0 0.00 0.00 0.00 72 1013.0
20260902020955 83 200 2.0 3.0 0.00 0.00 0.00 71 1012.7
20260902020451 83 199 3.0 5.0 0.00 0.00 0.00 71 1013.0
20260902015947 83 172 3.0 5.0 0.00 0.00 0.00 70 1012.8
20260902015443 83 182 3.0 3.0 0.00 0.00 0.00 71 1012.6
20260902014938 84 191 2.0 3.0 0.00 0.00 0.00 70 1012.5
20260902014435 84 195 2.0 3.0 0.00 0.00 0.00 70 1012.6
20260902013933 84 191 3.0 3.0 0.00 0.00 0.00 70 1012.5
20260902013429 84 195 2.0 2.0 0.00 0.00 0.00 69 1012.6
20260902012924 84 186 3.0 3.0 0.00 0.00 0.00 69 1012.4
20260902012420 84 185 3.0 3.0 0.00 0.00 0.00 69 1012.3
20260902011916 84 189 2.0 3.0 0.00 0.00 0.00 69 1012.6
20260902011410 85 192 2.0 3.0 0.00 0.00 0.00 69 1012.5
20260902010910 85 231 2.0 3.0 0.00 0.00 0.00 69 1012.3
20260902010405 85 257 2.0 5.0 0.00 0.00 0.00 69 1012.2
20260902005904 85 144 2.0 3.0 0.00 0.00 0.00 69 1012.4
20260902005358 86 227 1.0 3.0 0.00 0.00 0.00 68 1012.2
20260902004854 86 165 3.0 5.0 0.00 0.00 0.00 67 1012.4
20260902004353 86 258 1.0 2.0 0.00 0.00 0.00 68 1012.3
20260902003849 87 201 2.0 2.0 0.00 0.00 0.00 66 1012.4
20260902003344 87 244 2.0 6.0 0.00 0.00 0.00 66 1012.4
20260902002840 88 255 2.0 2.0 0.00 0.00 0.00 65 1012.4
20260902002339 88 198 2.0 3.0 0.00 0.00 0.00 64 1012.4
20260902001835 89 160 3.0 5.0 0.00 0.00 0.00 63 1012.4
20260902001330 89 192 3.0 5.0 0.00 0.00 0.00 62 1012.5
20260902000824 89 258 1.0 3.0 0.00 0.00 0.00 62 1012.7
20260902000324 90 243 3.0 5.0 0.00 0.00 0.00 61 1012.6
20260901235819 90 236 2.0 6.0 0.00 0.00 0.00 61 1012.5
20260901235314 91 192 3.0 3.0 0.00 0.00 0.00 61 1012.6
20260901234813 91 207 4.0 5.0 0.00 0.00 0.00 60 1012.5
20260901234308 92 247 2.0 2.0 0.00 0.00 0.00 60 1012.6
20260901233803 92 222 4.0 7.0 0.00 0.00 0.00 59 1012.6
20260901233253 92 190 2.0 5.0 0.00 0.00 0.00 59 1012.5
20260901232748 93 250 2.0 3.0 0.00 0.00 0.00 59 1012.5
20260901232238 93 215 2.0 5.0 0.00 0.00 0.00 59 1012.4
20260901231734 93 219 3.0 6.0 0.00 0.00 0.00 58 1012.4
20260901231230 94 171 3.0 5.0 0.00 0.00 0.00 57 1012.5
20260901230725 94 176 4.0 5.0 0.00 0.00 0.00 57 1012.4
20260901230219 95 190 3.0 6.0 0.00 0.00 0.00 57 1012.6
20260901225715 95 229 3.0 6.0 0.00 0.00 0.00 56 1012.4
20260901225209 95 249 2.0 3.0 0.00 0.00 0.00 56 1012.7
20260901224705 95 173 4.0 5.0 0.00 0.00 0.00 55 1012.6
20260901224201 95 217 4.0 6.0 0.00 0.00 0.00 55 1012.6
20260901223657 95 264 3.0 5.0 0.00 0.00 0.00 56 1012.7
20260901223151 96 222 5.0 6.0 0.00 0.00 0.00 54 1012.6
20260901222648 96 213 3.0 6.0 0.00 0.00 0.00 55 1012.7
20260901222144 96 233 6.0 6.0 0.00 0.00 0.00 53 1012.7
20260901221639 96 228 6.0 7.0 0.00 0.00 0.00 52 1012.7
20260901221135 96 239 5.0 7.0 0.00 0.00 0.00 52 1012.5
20260901220634 96 216 5.0 7.0 0.00 0.00 0.00 52 1012.8
20260901220134 96 207 5.0 7.0 0.00 0.00 0.00 51 1012.8
20260901215632 96 216 4.0 8.0 0.00 0.00 0.00 51 1012.6
20260901215126 97 245 4.0 6.0 0.00 0.00 0.00 52 1012.8
20260901214624 96 249 4.0 8.0 0.00 0.00 0.00 50 1012.9
20260901214119 97 233 9.0 10.0 0.00 0.00 0.00 49 1012.8
20260901213613 96 207 5.0 8.0 0.00 0.00 0.00 51 1012.8
20260901213108 97 212 4.0 8.0 0.00 0.00 0.00 50 1012.8
20260901212608 97 210 5.0 7.0 0.00 0.00 0.00 49 1012.8
20260901212104 96 167 6.0 8.0 0.00 0.00 0.00 49 1012.8
20260901211558 96 212 7.0 11.0 0.00 0.00 0.00 49 1012.7
20260901211055 96 208 7.0 9.0 0.00 0.00 0.00 49 1012.7
20260901210550 97 192 7.0 10.0 0.00 0.00 0.00 50 1012.9
20260901210046 97 296 4.0 6.0 0.00 0.00 0.00 50 1012.9
20260901205541 97 217 6.0 10.0 0.00 0.00 0.00 49 1013.1
20260901205036 96 230 5.0 9.0 0.00 0.00 0.00 50 1012.9
20260901204532 97 227 6.0 11.0 0.00 0.00 0.00 49 1013.0
20260901204026 96 207 7.0 13.0 0.00 0.00 0.00 50 1013.2
20260901203521 96 216 8.0 10.0 0.00 0.00 0.00 50 1013.1
20260901203017 97 210 4.0 6.0 0.00 0.00 0.00 50 1013.2
20260901202511 96 232 5.0 8.0 0.00 0.00 0.00 49 1013.3
20260901202007 96 210 6.0 11.0 0.00 0.00 0.00 50 1013.4
20260901201502 96 236 4.0 10.0 0.00 0.00 0.00 52 1013.3
20260901201002 96 206 7.0 9.0 0.00 0.00 0.00 50 1013.5
20260901200451 96 242 7.0 10.0 0.00 0.00 0.00 49 1013.4
20260901195950 96 203 6.0 9.0 0.00 0.00 0.00 51 1013.5
20260901195448 96 226 7.0 9.0 0.00 0.00 0.00 52 1013.5
20260901194938 96 232 3.0 7.0 0.00 0.00 0.00 52 1013.5
20260901194432 96 216 5.0 7.0 0.00 0.00 0.00 51 1013.7
20260901193929 95 264 6.0 11.0 0.00 0.00 0.00 50 1013.9
20260901193427 96 172 4.0 10.0 0.00 0.00 0.00 49 1013.9
20260901192922 95 229 5.0 10.0 0.00 0.00 0.00 49 1014.1
20260901192417 96 236 8.0 10.0 0.00 0.00 0.00 51 1014.1
20260901191913 96 200 6.0 8.0 0.00 0.00 0.00 51 1014.1
20260901191408 96 193 7.0 10.0 0.00 0.00 0.00 53 1014.2
20260901190904 96 246 5.0 9.0 0.00 0.00 0.00 50 1014.2
20260901190359 96 181 6.0 8.0 0.00 0.00 0.00 50 1014.2
20260901185857 96 212 6.0 9.0 0.00 0.00 0.00 53 1014.4
20260901185356 96 284 3.0 5.0 0.00 0.00 0.00 52 1014.0
20260901184852 95 243 3.0 7.0 0.00 0.00 0.00 51 1014.4
20260901184347 96 209 6.0 7.0 0.00 0.00 0.00 51 1014.3
20260901183842 95 260 3.0 5.0 0.00 0.00 0.00 52 1014.5
20260901183341 94 219 5.0 8.0 0.00 0.00 0.00 55 1014.4
20260901182837 94 216 6.0 7.0 0.00 0.00 0.00 53 1014.6
20260901182332 94 207 4.0 7.0 0.00 0.00 0.00 54 1014.6
20260901181827 94 234 6.0 7.0 0.00 0.00 0.00 53 1014.6
20260901181321 94 265 5.0 6.0 0.00 0.00 0.00 53 1014.8
20260901180815 95 274 2.0 5.0 0.00 0.00 0.00 54 1014.8
20260901180314 94 254 2.0 6.0 0.00 0.00 0.00 56 1014.8
20260901175814 94 224 5.0 7.0 0.00 0.00 0.00 54 1014.8
20260901175308 93 224 3.0 5.0 0.00 0.00 0.00 55 1014.8
20260901174803 93 247 3.0 7.0 0.00 0.00 0.00 55 1014.9
20260901174259 93 196 8.0 9.0 0.00 0.00 0.00 55 1014.9
20260901173754 92 208 3.0 6.0 0.00 0.00 0.00 57 1014.9
20260901173249 93 218 3.0 6.0 0.00 0.00 0.00 56 1014.9
20260901172746 92 273 3.0 6.0 0.00 0.00 0.00 56 1014.9
20260901172244 93 215 5.0 7.0 0.00 0.00 0.00 55 1014.8
20260901171743 91 230 4.0 5.0 0.00 0.00 0.00 56 1015.0
20260901171242 91 264 2.0 9.0 0.00 0.00 0.00 55 1015.0
20260901170741 91 246 4.0 7.0 0.00 0.00 0.00 57 1015.0
20260901170236 92 208 6.0 8.0 0.00 0.00 0.00 56 1015.0
20260901165734 91 215 4.0 7.0 0.00 0.00 0.00 58 1015.1
20260901165229 91 224 4.0 7.0 0.00 0.00 0.00 61 1015.1
20260901164726 91 256 5.0 8.0 0.00 0.00 0.00 58 1015.2
20260901164221 91 214 4.0 6.0 0.00 0.00 0.00 59 1015.1
20260901163716 90 258 3.0 7.0 0.00 0.00 0.00 61 1015.0
20260901163215 90 203 4.0 5.0 0.00 0.00 0.00 62 1015.1
20260901162710 90 213 4.0 6.0 0.00 0.00 0.00 62 1015.1
20260901162210 89 265 5.0 7.0 0.00 0.00 0.00 62 1015.2
20260901161708 89 211 7.0 8.0 0.00 0.00 0.00 62 1015.0
20260901161203 88 278 3.0 7.0 0.00 0.00 0.00 65 1015.2
20260901160700 88 211 4.0 7.0 0.00 0.00 0.00 65 1015.1
20260901160155 88 213 3.0 8.0 0.00 0.00 0.00 66 1015.0
20260901155653 87 212 2.0 5.0 0.00 0.00 0.00 68 1014.9
20260901155149 87 215 4.0 6.0 0.00 0.00 0.00 66 1015.0
20260901154644 87 205 5.0 8.0 0.00 0.00 0.00 66 1015.1
20260901154138 86 226 3.0 7.0 0.00 0.00 0.00 69 1014.9
20260901153634 86 226 6.0 7.0 0.00 0.00 0.00 66 1014.8
20260901153127 86 199 4.0 6.0 0.00 0.00 0.00 69 1014.9
20260901152623 86 222 6.0 8.0 0.00 0.00 0.00 68 1015.1
20260901152121 85 216 3.0 8.0 0.00 0.00 0.00 70 1015.0
20260901151617 85 210 4.0 7.0 0.00 0.00 0.00 72 1015.2
20260901151116 84 204 4.0 8.0 0.00 0.00 0.00 72 1015.1
20260901150615 84 181 5.0 10.0 0.00 0.00 0.00 74 1015.1
20260901150113 84 185 5.0 8.0 0.00 0.00 0.00 74 1015.2
20260901145607 84 226 5.0 7.0 0.00 0.00 0.00 74 1015.1
20260901145106 83 220 4.0 7.0 0.00 0.00 0.00 75 1015.0
20260901144602 83 229 5.0 6.0 0.00 0.00 0.00 75 1015.1
20260901144057 83 214 2.0 3.0 0.00 0.00 0.00 77 1015.1
20260901143552 82 198 3.0 6.0 0.00 0.00 0.00 77 1015.2
20260901143049 82 204 4.0 6.0 0.00 0.00 0.00 79 1015.1
20260901142544 81 198 5.0 7.0 0.00 0.00 0.00 78 1015.0
20260901142043 81 230 2.0 5.0 0.00 0.00 0.00 80 1014.9
20260901141538 80 215 5.0 6.0 0.00 0.00 0.00 81 1015.1
20260901141033 80 228 4.0 7.0 0.00 0.00 0.00 81 1015.0
20260901140531 80 172 3.0 5.0 0.00 0.00 0.00 81 1015.1
20260901140021 80 245 2.0 5.0 0.00 0.00 0.00 82 1015.0
20260901135520 79 212 4.0 5.0 0.00 0.00 0.00 83 1015.2
20260901135016 79 213 4.0 6.0 0.00 0.00 0.00 85 1015.1
20260901134512 78 253 2.0 3.0 0.00 0.00 0.00 85 1015.0
20260901134006 78 186 3.0 5.0 0.00 0.00 0.00 86 1015.1
20260901133505 78 239 2.0 5.0 0.00 0.00 0.00 86 1015.1
20260901133003 78 236 2.0 3.0 0.00 0.00 0.00 88 1015.0
20260901132458 77 188 2.0 3.0 0.00 0.00 0.00 88 1015.2
20260901131956 77 248 1.0 3.0 0.00 0.00 0.00 89 1015.1
20260901131451 77 189 3.0 3.0 0.00 0.00 0.00 89 1015.1
20260901130947 77 221 2.0 3.0 0.00 0.00 0.00 89 1015.2
20260901130441 77 249 3.0 5.0 0.00 0.00 0.00 88 1015.1
20260901125939 77 263 1.0 3.0 0.00 0.00 0.00 91 1015.3
20260901125438 77 190 2.0 3.0 0.00 0.00 0.00 92 1015.2
20260901124933 77 195 3.0 3.0 0.00 0.00 0.00 92 1015.2
20260901124428 77 195 3.0 3.0 0.00 0.00 0.00 92 1015.2
20260901123923 76 235 2.0 2.0 0.00 0.00 0.00 93 1015.2
20260901123418 76 203 2.0 2.0 0.00 0.00 0.00 93 1015.0
20260901122916 76 261 1.0 1.0 0.00 0.00 0.00 93 1015.1
20260901122411 76 204 1.0 2.0 0.00 0.00 0.00 94 1014.9
20260901121910 75 269 0.0 1.0 0.00 0.00 0.00 94 1014.9
20260901121405 75 233 1.0 3.0 0.00 0.00 0.00 94 1014.9
20260901120901 75 247 1.0 2.0 0.00 0.00 0.00 95 1015.0
20260901120355 75 265 0.0 2.0 0.00 0.00 0.00 96 1015.0
20260901115850 74 241 1.0 1.0 0.00 0.00 0.00 98 1015.1
20260901115345 74 213 2.0 2.0 0.00 0.00 0.00 98 1015.0
20260901114843 74 189 2.0 2.0 0.00 0.00 0.00 99 1014.7
20260901114338 74 232 1.0 2.0 0.00 0.00 0.00 99 1014.7
20260901113836 74 188 1.0 3.0 0.00 0.00 0.00 99 1014.7
20260901113335 74 185 2.0 3.0 0.00 0.00 0.00 99 1014.6
20260901112831 75 189 3.0 3.0 0.00 0.00 0.00 99 1014.8
20260901112330 75 178 3.0 3.0 0.00 0.00 0.00 99 1014.7
20260901111825 75 189 2.0 3.0 0.00 0.00 0.00 99 1014.6
20260901111324 75 181 2.0 3.0 0.00 0.00 0.00 99 1014.6
20260901110823 74 258 0.0 0.0 0.00 0.00 0.00 99 1014.8
20260901110319 75 249 1.0 1.0 0.00 0.00 0.00 99 1014.7
20260901105815 75 264 1.0 1.0 0.00 0.00 0.00 99 1014.8
20260901105314 75 269 0.0 2.0 0.00 0.00 0.00 99 1014.6
20260901104811 74 204 1.0 2.0 0.00 0.00 0.00 99 1014.5
20260901104306 74 186 2.0 2.0 0.00 0.00 0.00 99 1014.5
20260901103801 74 245 1.0 2.0 0.00 0.00 0.00 99 1014.6
20260901103255 75 201 1.0 2.0 0.00 0.00 0.00 99 1014.7